owner,sensor,date,latitude,longitude,vertical_datum,sea_water_practical_salinity,qcFlag 
TABS,ioos:station:wmo:42050:1,2017-03-01T00:00:00Z,28.8425,-94.2433,2.0,35.3132,11111222 
TABS,ioos:station:wmo:42050:1,2017-03-01T00:30:00Z,28.8425,-94.2433,2.0,35.3127,11111222 
TABS,ioos:station:wmo:42050:1,2017-03-01T01:00:00Z,28.8425,-94.2433,2.0,35.3163,11111222 
TABS,ioos:station:wmo:42050:1,2017-03-01T01:30:00Z,28.8425,-94.2433,2.0,35.3192,11111222 
TABS,ioos:station:wmo:42050:1,2017-03-01T02:00:00Z,28.8425,-94.2433,2.0,35.3197,11111222 
TABS,ioos:station:wmo:42050:1,2017-03-01T02:30:00Z,28.8425,-94.2433,2.0,35.3232,11111222 
TABS,ioos:station:wmo:42050:1,2017-03-01T03:00:00Z,28.8425,-94.2433,2.0,35.326,11111222 
TABS,ioos:station:wmo:42050:1,2017-03-01T03:30:00Z,28.8425,-94.2433,2.0,35.3308,11111222 
TABS,ioos:station:wmo:42050:1,2017-03-01T04:00:00Z,28.8425,-94.2433,2.0,35.3296,11111222 
TABS,ioos:station:wmo:42050:1,2017-03-01T04:30:00Z,28.8425,-94.2433,2.0,35.3308,11111222 
TABS,ioos:station:wmo:42050:1,2017-03-01T05:00:00Z,28.8425,-94.2433,2.0,35.3352,11111222 
TABS,ioos:station:wmo:42050:1,2017-03-01T05:30:00Z,28.8425,-94.2433,2.0,35.3367,11111222 
TABS,ioos:station:wmo:42050:1,2017-03-01T06:00:00Z,28.8425,-94.2433,2.0,35.3336,11111222 
TABS,ioos:station:wmo:42050:1,2017-03-01T06:30:00Z,28.8425,-94.2433,2.0,35.3353,11111222 
TABS,ioos:station:wmo:42050:1,2017-03-01T07:00:00Z,28.8425,-94.2433,2.0,35.3294,11111222 
TABS,ioos:station:wmo:42050:1,2017-03-01T07:30:00Z,28.8425,-94.2433,2.0,35.3297,11111222 
TABS,ioos:station:wmo:42050:1,2017-03-01T08:00:00Z,28.8425,-94.2433,2.0,35.3287,11111222 
TABS,ioos:station:wmo:42050:1,2017-03-01T08:30:00Z,28.8425,-94.2433,2.0,35.3269,11111222 
TABS,ioos:station:wmo:42050:1,2017-03-01T09:00:00Z,28.8425,-94.2433,2.0,35.3237,11111222 
TABS,ioos:station:wmo:42050:1,2017-03-01T09:30:00Z,28.8425,-94.2433,2.0,35.3201,11111222 
TABS,ioos:station:wmo:42050:1,2017-03-01T10:00:00Z,28.8425,-94.2433,2.0,35.3179,11111222 
TABS,ioos:station:wmo:42050:1,2017-03-01T10:30:00Z,28.8425,-94.2433,2.0,35.3153,11111222 
TABS,ioos:station:wmo:42050:1,2017-03-01T11:00:00Z,28.8425,-94.2433,2.0,35.3145,11111222 
TABS,ioos:station:wmo:42050:1,2017-03-01T11:30:00Z,28.8425,-94.2433,2.0,35.3144,11111222 
TABS,ioos:station:wmo:42050:1,2017-03-01T12:00:00Z,28.8425,-94.2433,2.0,35.3125,11111222 
TABS,ioos:station:wmo:42050:1,2017-03-01T12:30:00Z,28.8425,-94.2433,2.0,35.3138,11111222 
TABS,ioos:station:wmo:42050:1,2017-03-01T13:00:00Z,28.8425,-94.2433,2.0,35.3177,11111222 
TABS,ioos:station:wmo:42050:1,2017-03-01T13:30:00Z,28.8425,-94.2433,2.0,35.3255,11111222 
TABS,ioos:station:wmo:42050:1,2017-03-01T14:00:00Z,28.8425,-94.2433,2.0,35.3295,11111222 
TABS,ioos:station:wmo:42050:1,2017-03-01T14:30:00Z,28.8425,-94.2433,2.0,35.3385,11111222 
TABS,ioos:station:wmo:42050:1,2017-03-01T15:00:00Z,28.8425,-94.2433,2.0,35.3407,11111222 
TABS,ioos:station:wmo:42050:1,2017-03-01T15:30:00Z,28.8425,-94.2433,2.0,35.3424,11111222 
TABS,ioos:station:wmo:42050:1,2017-03-01T16:00:00Z,28.8425,-94.2433,2.0,35.3431,11111222 
TABS,ioos:station:wmo:42050:1,2017-03-01T16:30:00Z,28.8425,-94.2433,2.0,35.3467,11111222 
TABS,ioos:station:wmo:42050:1,2017-03-01T17:00:00Z,28.8425,-94.2433,2.0,35.3489,11111222 
TABS,ioos:station:wmo:42050:1,2017-03-01T17:30:00Z,28.8425,-94.2433,2.0,35.3419,11111222 
TABS,ioos:station:wmo:42050:1,2017-03-01T18:00:00Z,28.8425,-94.2433,2.0,35.3619,11111222 
TABS,ioos:station:wmo:42050:1,2017-03-01T18:30:00Z,28.8425,-94.2433,2.0,35.3482,11111222 
TABS,ioos:station:wmo:42050:1,2017-03-01T19:00:00Z,28.8425,-94.2433,2.0,35.3441,11111222 
TABS,ioos:station:wmo:42050:1,2017-03-01T19:30:00Z,28.8425,-94.2433,2.0,35.335,11111222 
TABS,ioos:station:wmo:42050:1,2017-03-01T20:00:00Z,28.8425,-94.2433,2.0,35.3414,11111222 
TABS,ioos:station:wmo:42050:1,2017-03-01T20:30:00Z,28.8425,-94.2433,2.0,35.3504,11111222 
TABS,ioos:station:wmo:42050:1,2017-03-01T21:00:00Z,28.8425,-94.2433,2.0,35.3551,11111222 
TABS,ioos:station:wmo:42050:1,2017-03-01T21:30:00Z,28.8425,-94.2433,2.0,35.3639,11111222 
TABS,ioos:station:wmo:42050:1,2017-03-01T22:00:00Z,28.8425,-94.2433,2.0,35.334,11111222 
TABS,ioos:station:wmo:42050:1,2017-03-01T22:30:00Z,28.8425,-94.2433,2.0,35.3759,11111222 
TABS,ioos:station:wmo:42050:1,2017-03-01T23:00:00Z,28.8425,-94.2433,2.0,35.3702,11111222 
TABS,ioos:station:wmo:42050:1,2017-03-01T23:30:00Z,28.8425,-94.2433,2.0,35.3231,11111222 
TABS,ioos:station:wmo:42050:1,2017-03-02T00:00:00Z,28.8425,-94.2433,2.0,35.412,11111222 
TABS,ioos:station:wmo:42050:1,2017-03-02T00:30:00Z,28.8425,-94.2433,2.0,35.3955,11111222 
TABS,ioos:station:wmo:42050:1,2017-03-02T01:00:00Z,28.8425,-94.2433,2.0,35.4071,11111222 
TABS,ioos:station:wmo:42050:1,2017-03-02T01:30:00Z,28.8425,-94.2433,2.0,35.3958,11111222 
TABS,ioos:station:wmo:42050:1,2017-03-02T02:00:00Z,28.8425,-94.2433,2.0,35.3853,11111222 
TABS,ioos:station:wmo:42050:1,2017-03-02T02:30:00Z,28.8425,-94.2433,2.0,35.3893,11111222 
TABS,ioos:station:wmo:42050:1,2017-03-02T03:00:00Z,28.8425,-94.2433,2.0,35.4051,11111222 
TABS,ioos:station:wmo:42050:1,2017-03-02T03:30:00Z,28.8425,-94.2433,2.0,35.4167,11111222 
TABS,ioos:station:wmo:42050:1,2017-03-02T04:00:00Z,28.8425,-94.2433,2.0,35.4253,11111222 
TABS,ioos:station:wmo:42050:1,2017-03-02T04:30:00Z,28.8425,-94.2433,2.0,35.4385,11111222 
TABS,ioos:station:wmo:42050:1,2017-03-02T05:00:00Z,28.8425,-94.2433,2.0,35.4414,11111222 
TABS,ioos:station:wmo:42050:1,2017-03-02T05:30:00Z,28.8425,-94.2433,2.0,35.4508,11111222 
TABS,ioos:station:wmo:42050:1,2017-03-02T06:00:00Z,28.8425,-94.2433,2.0,35.4638,11111222 
TABS,ioos:station:wmo:42050:1,2017-03-02T06:30:00Z,28.8425,-94.2433,2.0,35.4582,11111222 
TABS,ioos:station:wmo:42050:1,2017-03-02T07:00:00Z,28.8425,-94.2433,2.0,35.4545,11111222 
TABS,ioos:station:wmo:42050:1,2017-03-02T07:30:00Z,28.8425,-94.2433,2.0,35.4437,11111222 
TABS,ioos:station:wmo:42050:1,2017-03-02T08:00:00Z,28.8425,-94.2433,2.0,35.4437,11111222 
TABS,ioos:station:wmo:42050:1,2017-03-02T08:30:00Z,28.8425,-94.2433,2.0,35.4425,11111222 
TABS,ioos:station:wmo:42050:1,2017-03-02T09:00:00Z,28.8425,-94.2433,2.0,35.4392,11111222 
TABS,ioos:station:wmo:42050:1,2017-03-02T09:30:00Z,28.8425,-94.2433,2.0,35.4354,11111222 
TABS,ioos:station:wmo:42050:1,2017-03-02T10:00:00Z,28.8425,-94.2433,2.0,35.429,11111222 
TABS,ioos:station:wmo:42050:1,2017-03-02T10:30:00Z,28.8425,-94.2433,2.0,35.421,11111222 
TABS,ioos:station:wmo:42050:1,2017-03-02T11:00:00Z,28.8425,-94.2433,2.0,35.4001,11111222 
TABS,ioos:station:wmo:42050:1,2017-03-02T11:30:00Z,28.8425,-94.2433,2.0,35.3888,11111222 
TABS,ioos:station:wmo:42050:1,2017-03-02T12:00:00Z,28.8425,-94.2433,2.0,35.386,11111222 
TABS,ioos:station:wmo:42050:1,2017-03-02T12:30:00Z,28.8425,-94.2433,2.0,35.3638,11111222 
TABS,ioos:station:wmo:42050:1,2017-03-02T13:00:00Z,28.8425,-94.2433,2.0,35.3498,11111222 
TABS,ioos:station:wmo:42050:1,2017-03-02T13:30:00Z,28.8425,-94.2433,2.0,35.3359,11111222 
TABS,ioos:station:wmo:42050:1,2017-03-02T14:00:00Z,28.8425,-94.2433,2.0,35.3281,11111222 
TABS,ioos:station:wmo:42050:1,2017-03-02T14:30:00Z,28.8425,-94.2433,2.0,35.3146,11111222 
TABS,ioos:station:wmo:42050:1,2017-03-02T15:00:00Z,28.8425,-94.2433,2.0,35.3034,11111222 
TABS,ioos:station:wmo:42050:1,2017-03-02T15:30:00Z,28.8425,-94.2433,2.0,35.2957,11111222 
TABS,ioos:station:wmo:42050:1,2017-03-02T16:00:00Z,28.8425,-94.2433,2.0,35.2709,11111222 
TABS,ioos:station:wmo:42050:1,2017-03-02T16:30:00Z,28.8425,-94.2433,2.0,35.2553,11111222 
TABS,ioos:station:wmo:42050:1,2017-03-02T17:00:00Z,28.8425,-94.2433,2.0,35.2528,11111222 
TABS,ioos:station:wmo:42050:1,2017-03-02T17:30:00Z,28.8425,-94.2433,2.0,35.2414,11111222 
TABS,ioos:station:wmo:42050:1,2017-03-02T18:00:00Z,28.8425,-94.2433,2.0,35.2318,11111222 
TABS,ioos:station:wmo:42050:1,2017-03-02T18:30:00Z,28.8425,-94.2433,2.0,35.2266,11111222 
TABS,ioos:station:wmo:42050:1,2017-03-02T19:00:00Z,28.8425,-94.2433,2.0,35.2202,11111222 
TABS,ioos:station:wmo:42050:1,2017-03-02T19:30:00Z,28.8425,-94.2433,2.0,35.2024,11111222 
TABS,ioos:station:wmo:42050:1,2017-03-02T20:00:00Z,28.8425,-94.2433,2.0,35.1846,11111222 
TABS,ioos:station:wmo:42050:1,2017-03-02T20:30:00Z,28.8425,-94.2433,2.0,35.1794,11111222 
TABS,ioos:station:wmo:42050:1,2017-03-02T21:00:00Z,28.8425,-94.2433,2.0,35.1735,11111222 
TABS,ioos:station:wmo:42050:1,2017-03-02T21:30:00Z,28.8425,-94.2433,2.0,35.1737,11111222 
TABS,ioos:station:wmo:42050:1,2017-03-02T22:00:00Z,28.8425,-94.2433,2.0,35.1784,11111222 
TABS,ioos:station:wmo:42050:1,2017-03-02T22:30:00Z,28.8425,-94.2433,2.0,35.1741,11111222 
TABS,ioos:station:wmo:42050:1,2017-03-02T23:00:00Z,28.8425,-94.2433,2.0,35.171,11111222 
TABS,ioos:station:wmo:42050:1,2017-03-02T23:30:00Z,28.8425,-94.2433,2.0,35.1647,11111222 
TABS,ioos:station:wmo:42050:1,2017-03-03T00:00:00Z,28.8425,-94.2433,2.0,35.1484,11111222 
TABS,ioos:station:wmo:42050:1,2017-03-03T00:30:00Z,28.8425,-94.2433,2.0,35.1284,11111222 
TABS,ioos:station:wmo:42050:1,2017-03-03T01:00:00Z,28.8425,-94.2433,2.0,35.1043,11111222 
TABS,ioos:station:wmo:42050:1,2017-03-03T01:30:00Z,28.8425,-94.2433,2.0,35.0853,11111222 
TABS,ioos:station:wmo:42050:1,2017-03-03T02:00:00Z,28.8425,-94.2433,2.0,35.0728,11111222 
TABS,ioos:station:wmo:42050:1,2017-03-03T02:30:00Z,28.8425,-94.2433,2.0,35.0735,11111222 
TABS,ioos:station:wmo:42050:1,2017-03-03T03:00:00Z,28.8425,-94.2433,2.0,35.1281,11111222 
TABS,ioos:station:wmo:42050:1,2017-03-03T03:30:00Z,28.8425,-94.2433,2.0,35.1395,11111222 
TABS,ioos:station:wmo:42050:1,2017-03-03T04:00:00Z,28.8425,-94.2433,2.0,35.1551,11111222 
TABS,ioos:station:wmo:42050:1,2017-03-03T04:30:00Z,28.8425,-94.2433,2.0,35.2195,11111222 
TABS,ioos:station:wmo:42050:1,2017-03-03T05:00:00Z,28.8425,-94.2433,2.0,35.2493,11111222 
TABS,ioos:station:wmo:42050:1,2017-03-03T05:30:00Z,28.8425,-94.2433,2.0,35.261,11111222 
TABS,ioos:station:wmo:42050:1,2017-03-03T06:00:00Z,28.8425,-94.2433,2.0,35.2736,11111222 
TABS,ioos:station:wmo:42050:1,2017-03-03T06:30:00Z,28.8425,-94.2433,2.0,35.2717,11111222 
TABS,ioos:station:wmo:42050:1,2017-03-03T07:00:00Z,28.8425,-94.2433,2.0,35.2728,11111222 
TABS,ioos:station:wmo:42050:1,2017-03-03T07:30:00Z,28.8425,-94.2433,2.0,35.2766,11111222 
TABS,ioos:station:wmo:42050:1,2017-03-03T08:00:00Z,28.8425,-94.2433,2.0,35.2899,11111222 
TABS,ioos:station:wmo:42050:1,2017-03-03T08:30:00Z,28.8425,-94.2433,2.0,35.3079,11111222 
TABS,ioos:station:wmo:42050:1,2017-03-03T09:00:00Z,28.8425,-94.2433,2.0,35.3245,11111222 
TABS,ioos:station:wmo:42050:1,2017-03-03T09:30:00Z,28.8425,-94.2433,2.0,35.3456,11111222 
TABS,ioos:station:wmo:42050:1,2017-03-03T10:00:00Z,28.8425,-94.2433,2.0,35.3682,11111222 
TABS,ioos:station:wmo:42050:1,2017-03-03T10:30:00Z,28.8425,-94.2433,2.0,35.3883,11111222 
TABS,ioos:station:wmo:42050:1,2017-03-03T11:00:00Z,28.8425,-94.2433,2.0,35.3927,11111222 
TABS,ioos:station:wmo:42050:1,2017-03-03T11:30:00Z,28.8425,-94.2433,2.0,35.404,11111222 
TABS,ioos:station:wmo:42050:1,2017-03-03T12:00:00Z,28.8425,-94.2433,2.0,35.4232,11111222 
TABS,ioos:station:wmo:42050:1,2017-03-03T12:30:00Z,28.8425,-94.2433,2.0,35.4392,11111222 
TABS,ioos:station:wmo:42050:1,2017-03-03T13:00:00Z,28.8425,-94.2433,2.0,35.4518,11111222 
TABS,ioos:station:wmo:42050:1,2017-03-03T13:30:00Z,28.8425,-94.2433,2.0,35.4761,11111222 
TABS,ioos:station:wmo:42050:1,2017-03-03T14:00:00Z,28.8425,-94.2433,2.0,35.4984,11111222 
TABS,ioos:station:wmo:42050:1,2017-03-03T14:30:00Z,28.8425,-94.2433,2.0,35.5122,11111222 
TABS,ioos:station:wmo:42050:1,2017-03-03T15:00:00Z,28.8425,-94.2433,2.0,35.5212,11111222 
TABS,ioos:station:wmo:42050:1,2017-03-03T15:30:00Z,28.8425,-94.2433,2.0,35.5518,11111222 
TABS,ioos:station:wmo:42050:1,2017-03-03T16:00:00Z,28.8425,-94.2433,2.0,35.5637,11111222 
TABS,ioos:station:wmo:42050:1,2017-03-03T16:30:00Z,28.8425,-94.2433,2.0,35.5732,11111222 
TABS,ioos:station:wmo:42050:1,2017-03-03T17:00:00Z,28.8425,-94.2433,2.0,35.5746,11111222 
TABS,ioos:station:wmo:42050:1,2017-03-03T17:30:00Z,28.8425,-94.2433,2.0,35.5764,11111222 
TABS,ioos:station:wmo:42050:1,2017-03-03T18:00:00Z,28.8425,-94.2433,2.0,35.5843,11111222 
TABS,ioos:station:wmo:42050:1,2017-03-03T18:30:00Z,28.8425,-94.2433,2.0,35.5884,11111222 
TABS,ioos:station:wmo:42050:1,2017-03-03T19:00:00Z,28.8425,-94.2433,2.0,35.5851,11111222 
TABS,ioos:station:wmo:42050:1,2017-03-03T19:30:00Z,28.8425,-94.2433,2.0,35.5894,11111222 
TABS,ioos:station:wmo:42050:1,2017-03-03T20:00:00Z,28.8425,-94.2433,2.0,35.6132,11111222 
TABS,ioos:station:wmo:42050:1,2017-03-03T20:30:00Z,28.8425,-94.2433,2.0,35.6415,11111222 
TABS,ioos:station:wmo:42050:1,2017-03-03T21:00:00Z,28.8425,-94.2433,2.0,35.6615,11111222 
TABS,ioos:station:wmo:42050:1,2017-03-03T21:30:00Z,28.8425,-94.2433,2.0,35.708,11111222 
TABS,ioos:station:wmo:42050:1,2017-03-03T22:00:00Z,28.8425,-94.2433,2.0,35.7253,11111222 
TABS,ioos:station:wmo:42050:1,2017-03-03T22:30:00Z,28.8425,-94.2433,2.0,35.7331,11111222 
TABS,ioos:station:wmo:42050:1,2017-03-03T23:00:00Z,28.8425,-94.2433,2.0,35.7679,11111222 
TABS,ioos:station:wmo:42050:1,2017-03-03T23:30:00Z,28.8425,-94.2433,2.0,35.7789,11111222 
TABS,ioos:station:wmo:42050:1,2017-03-04T00:00:00Z,28.8425,-94.2433,2.0,35.7878,11111222 
TABS,ioos:station:wmo:42050:1,2017-03-04T00:30:00Z,28.8425,-94.2433,2.0,35.7925,11111222 
TABS,ioos:station:wmo:42050:1,2017-03-04T01:00:00Z,28.8425,-94.2433,2.0,35.7989,11111222 
TABS,ioos:station:wmo:42050:1,2017-03-04T01:30:00Z,28.8425,-94.2433,2.0,35.806,11111222 
TABS,ioos:station:wmo:42050:1,2017-03-04T02:00:00Z,28.8425,-94.2433,2.0,35.8087,11111222 
TABS,ioos:station:wmo:42050:1,2017-03-04T02:30:00Z,28.8425,-94.2433,2.0,35.8118,11111222 
TABS,ioos:station:wmo:42050:1,2017-03-04T03:00:00Z,28.8425,-94.2433,2.0,35.8051,11111222 
TABS,ioos:station:wmo:42050:1,2017-03-04T03:30:00Z,28.8425,-94.2433,2.0,35.7875,11111222 
TABS,ioos:station:wmo:42050:1,2017-03-04T04:00:00Z,28.8425,-94.2433,2.0,35.7773,11111222 
TABS,ioos:station:wmo:42050:1,2017-03-04T04:30:00Z,28.8425,-94.2433,2.0,35.7614,11111222 
TABS,ioos:station:wmo:42050:1,2017-03-04T05:00:00Z,28.8425,-94.2433,2.0,35.7423,11111222 
TABS,ioos:station:wmo:42050:1,2017-03-04T05:30:00Z,28.8425,-94.2433,2.0,35.7309,11111222 
TABS,ioos:station:wmo:42050:1,2017-03-04T06:00:00Z,28.8425,-94.2433,2.0,35.7118,11111222 
TABS,ioos:station:wmo:42050:1,2017-03-04T06:30:00Z,28.8425,-94.2433,2.0,35.6938,11111222 
TABS,ioos:station:wmo:42050:1,2017-03-04T07:00:00Z,28.8425,-94.2433,2.0,35.6822,11111222 
TABS,ioos:station:wmo:42050:1,2017-03-04T07:30:00Z,28.8425,-94.2433,2.0,35.6664,11111222 
TABS,ioos:station:wmo:42050:1,2017-03-04T08:00:00Z,28.8425,-94.2433,2.0,35.6636,11111222 
TABS,ioos:station:wmo:42050:1,2017-03-04T08:30:00Z,28.8425,-94.2433,2.0,35.6549,11111222 
TABS,ioos:station:wmo:42050:1,2017-03-04T09:00:00Z,28.8425,-94.2433,2.0,35.6505,11111222 
TABS,ioos:station:wmo:42050:1,2017-03-04T09:30:00Z,28.8425,-94.2433,2.0,35.6461,11111222 
TABS,ioos:station:wmo:42050:1,2017-03-04T10:00:00Z,28.8425,-94.2433,2.0,35.6511,11111222 
TABS,ioos:station:wmo:42050:1,2017-03-04T10:30:00Z,28.8425,-94.2433,2.0,35.6554,11111222 
TABS,ioos:station:wmo:42050:1,2017-03-04T11:00:00Z,28.8425,-94.2433,2.0,35.6645,11111222 
TABS,ioos:station:wmo:42050:1,2017-03-04T11:30:00Z,28.8425,-94.2433,2.0,35.6753,11111222 
TABS,ioos:station:wmo:42050:1,2017-03-04T12:00:00Z,28.8425,-94.2433,2.0,35.6777,11111222 
TABS,ioos:station:wmo:42050:1,2017-03-04T12:30:00Z,28.8425,-94.2433,2.0,35.6762,11111222 
TABS,ioos:station:wmo:42050:1,2017-03-04T13:00:00Z,28.8425,-94.2433,2.0,35.6737,11111222 
TABS,ioos:station:wmo:42050:1,2017-03-04T13:30:00Z,28.8425,-94.2433,2.0,35.6633,11111222 
TABS,ioos:station:wmo:42050:1,2017-03-04T14:00:00Z,28.8425,-94.2433,2.0,35.6518,11111222 
TABS,ioos:station:wmo:42050:1,2017-03-04T14:30:00Z,28.8425,-94.2433,2.0,35.633,11111222 
TABS,ioos:station:wmo:42050:1,2017-03-04T15:00:00Z,28.8425,-94.2433,2.0,35.6135,11111222 
TABS,ioos:station:wmo:42050:1,2017-03-04T15:30:00Z,28.8425,-94.2433,2.0,35.5973,11111222 
TABS,ioos:station:wmo:42050:1,2017-03-04T16:00:00Z,28.8425,-94.2433,2.0,35.5887,11111222 
TABS,ioos:station:wmo:42050:1,2017-03-04T16:30:00Z,28.8425,-94.2433,2.0,35.5892,11111222 
TABS,ioos:station:wmo:42050:1,2017-03-04T17:00:00Z,28.8425,-94.2433,2.0,35.6232,11111222 
TABS,ioos:station:wmo:42050:1,2017-03-04T17:30:00Z,28.8425,-94.2433,2.0,35.6401,11111222 
TABS,ioos:station:wmo:42050:1,2017-03-04T18:00:00Z,28.8425,-94.2433,2.0,35.6447,11111222 
TABS,ioos:station:wmo:42050:1,2017-03-04T18:30:00Z,28.8425,-94.2433,2.0,35.6443,11111222 
TABS,ioos:station:wmo:42050:1,2017-03-04T19:00:00Z,28.8425,-94.2433,2.0,35.6335,11111222 
TABS,ioos:station:wmo:42050:1,2017-03-04T19:30:00Z,28.8425,-94.2433,2.0,35.6113,11111222 
TABS,ioos:station:wmo:42050:1,2017-03-04T20:00:00Z,28.8425,-94.2433,2.0,35.5898,11111222 
TABS,ioos:station:wmo:42050:1,2017-03-04T20:30:00Z,28.8425,-94.2433,2.0,35.5731,11111222 
TABS,ioos:station:wmo:42050:1,2017-03-04T21:00:00Z,28.8425,-94.2433,2.0,35.5556,11111222 
TABS,ioos:station:wmo:42050:1,2017-03-04T21:30:00Z,28.8425,-94.2433,2.0,35.54,11111222 
TABS,ioos:station:wmo:42050:1,2017-03-04T22:00:00Z,28.8425,-94.2433,2.0,35.5235,11111222 
TABS,ioos:station:wmo:42050:1,2017-03-04T22:30:00Z,28.8425,-94.2433,2.0,35.5092,11111222 
TABS,ioos:station:wmo:42050:1,2017-03-04T23:00:00Z,28.8425,-94.2433,2.0,35.4953,11111222 
TABS,ioos:station:wmo:42050:1,2017-03-04T23:30:00Z,28.8425,-94.2433,2.0,35.4851,11111222 
TABS,ioos:station:wmo:42050:1,2017-03-05T00:00:00Z,28.8425,-94.2433,2.0,35.4742,11111222 
TABS,ioos:station:wmo:42050:1,2017-03-05T00:30:00Z,28.8425,-94.2433,2.0,35.4588,11111222 
TABS,ioos:station:wmo:42050:1,2017-03-05T01:00:00Z,28.8425,-94.2433,2.0,35.4568,11111222 
TABS,ioos:station:wmo:42050:1,2017-03-05T01:30:00Z,28.8425,-94.2433,2.0,35.449,11111222 
TABS,ioos:station:wmo:42050:1,2017-03-05T02:00:00Z,28.8425,-94.2433,2.0,35.4419,11111222 
TABS,ioos:station:wmo:42050:1,2017-03-05T02:30:00Z,28.8425,-94.2433,2.0,35.4413,11111222 
TABS,ioos:station:wmo:42050:1,2017-03-05T03:00:00Z,28.8425,-94.2433,2.0,35.4473,11111222 
TABS,ioos:station:wmo:42050:1,2017-03-05T03:30:00Z,28.8425,-94.2433,2.0,35.4661,11111222 
TABS,ioos:station:wmo:42050:1,2017-03-05T04:00:00Z,28.8425,-94.2433,2.0,35.4687,11111222 
TABS,ioos:station:wmo:42050:1,2017-03-05T04:30:00Z,28.8425,-94.2433,2.0,35.4693,11111222 
TABS,ioos:station:wmo:42050:1,2017-03-05T05:00:00Z,28.8425,-94.2433,2.0,35.469,11111222 
TABS,ioos:station:wmo:42050:1,2017-03-05T05:30:00Z,28.8425,-94.2433,2.0,35.4725,11111222 
TABS,ioos:station:wmo:42050:1,2017-03-05T06:00:00Z,28.8425,-94.2433,2.0,35.486,11111222 
TABS,ioos:station:wmo:42050:1,2017-03-05T06:30:00Z,28.8425,-94.2433,2.0,35.5122,11111222 
TABS,ioos:station:wmo:42050:1,2017-03-05T07:00:00Z,28.8425,-94.2433,2.0,35.5286,11111222 
TABS,ioos:station:wmo:42050:1,2017-03-05T07:30:00Z,28.8425,-94.2433,2.0,35.535,11111222 
TABS,ioos:station:wmo:42050:1,2017-03-05T08:00:00Z,28.8425,-94.2433,2.0,35.5646,11111222 
TABS,ioos:station:wmo:42050:1,2017-03-05T08:30:00Z,28.8425,-94.2433,2.0,35.6373,11111222 
TABS,ioos:station:wmo:42050:1,2017-03-05T09:00:00Z,28.8425,-94.2433,2.0,35.6943,11111222 
TABS,ioos:station:wmo:42050:1,2017-03-05T09:30:00Z,28.8425,-94.2433,2.0,35.7309,11111222 
TABS,ioos:station:wmo:42050:1,2017-03-05T10:00:00Z,28.8425,-94.2433,2.0,35.8118,11111222 
TABS,ioos:station:wmo:42050:1,2017-03-05T10:30:00Z,28.8425,-94.2433,2.0,35.8795,11111222 
TABS,ioos:station:wmo:42050:1,2017-03-05T11:00:00Z,28.8425,-94.2433,2.0,35.9082,11111222 
TABS,ioos:station:wmo:42050:1,2017-03-05T11:30:00Z,28.8425,-94.2433,2.0,35.9258,11111222 
TABS,ioos:station:wmo:42050:1,2017-03-05T12:00:00Z,28.8425,-94.2433,2.0,35.9392,11111222 
TABS,ioos:station:wmo:42050:1,2017-03-05T12:30:00Z,28.8425,-94.2433,2.0,35.9454,11111222 
TABS,ioos:station:wmo:42050:1,2017-03-05T13:00:00Z,28.8425,-94.2433,2.0,35.947,11111222 
TABS,ioos:station:wmo:42050:1,2017-03-05T13:30:00Z,28.8425,-94.2433,2.0,35.9517,11111222 
TABS,ioos:station:wmo:42050:1,2017-03-05T14:00:00Z,28.8425,-94.2433,2.0,35.9502,11111222 
TABS,ioos:station:wmo:42050:1,2017-03-05T14:30:00Z,28.8425,-94.2433,2.0,35.9564,11111222 
TABS,ioos:station:wmo:42050:1,2017-03-05T15:00:00Z,28.8425,-94.2433,2.0,35.969,11111222 
TABS,ioos:station:wmo:42050:1,2017-03-05T15:30:00Z,28.8425,-94.2433,2.0,35.9997,11111222 
TABS,ioos:station:wmo:42050:1,2017-03-05T16:00:00Z,28.8425,-94.2433,2.0,36.038,11111222 
TABS,ioos:station:wmo:42050:1,2017-03-05T16:30:00Z,28.8425,-94.2433,2.0,36.0232,11111222 
TABS,ioos:station:wmo:42050:1,2017-03-05T17:00:00Z,28.8425,-94.2433,2.0,36.026,11111222 
TABS,ioos:station:wmo:42050:1,2017-03-05T17:30:00Z,28.8425,-94.2433,2.0,35.9919,11111222 
TABS,ioos:station:wmo:42050:1,2017-03-05T18:00:00Z,28.8425,-94.2433,2.0,35.9859,11111222 
TABS,ioos:station:wmo:42050:1,2017-03-05T18:30:00Z,28.8425,-94.2433,2.0,35.9918,11111222 
TABS,ioos:station:wmo:42050:1,2017-03-05T19:00:00Z,28.8425,-94.2433,2.0,35.9919,11111222 
TABS,ioos:station:wmo:42050:1,2017-03-05T19:30:00Z,28.8425,-94.2433,2.0,35.9641,11111222 
TABS,ioos:station:wmo:42050:1,2017-03-05T20:00:00Z,28.8425,-94.2433,2.0,35.9521,11111222 
TABS,ioos:station:wmo:42050:1,2017-03-05T20:30:00Z,28.8425,-94.2433,2.0,35.966,11111222 
TABS,ioos:station:wmo:42050:1,2017-03-05T21:00:00Z,28.8425,-94.2433,2.0,35.9698,11111222 
TABS,ioos:station:wmo:42050:1,2017-03-05T21:30:00Z,28.8425,-94.2433,2.0,35.9793,11111222 
TABS,ioos:station:wmo:42050:1,2017-03-05T22:00:00Z,28.8425,-94.2433,2.0,35.9798,11111222 
TABS,ioos:station:wmo:42050:1,2017-03-05T22:30:00Z,28.8425,-94.2433,2.0,35.9834,11111222 
TABS,ioos:station:wmo:42050:1,2017-03-05T23:00:00Z,28.8425,-94.2433,2.0,35.9887,11111222 
TABS,ioos:station:wmo:42050:1,2017-03-05T23:30:00Z,28.8425,-94.2433,2.0,35.9956,11111222 
TABS,ioos:station:wmo:42050:1,2017-03-06T00:00:00Z,28.8425,-94.2433,2.0,35.9989,11111222 
TABS,ioos:station:wmo:42050:1,2017-03-06T00:30:00Z,28.8425,-94.2433,2.0,36.0029,11111222 
TABS,ioos:station:wmo:42050:1,2017-03-06T01:00:00Z,28.8425,-94.2433,2.0,36.0018,11111222 
TABS,ioos:station:wmo:42050:1,2017-03-06T01:30:00Z,28.8425,-94.2433,2.0,36.0,11111222 
TABS,ioos:station:wmo:42050:1,2017-03-06T02:00:00Z,28.8425,-94.2433,2.0,36.0088,11111222 
TABS,ioos:station:wmo:42050:1,2017-03-06T02:30:00Z,28.8425,-94.2433,2.0,36.0186,11111222 
TABS,ioos:station:wmo:42050:1,2017-03-06T03:00:00Z,28.8425,-94.2433,2.0,36.0309,11111222 
TABS,ioos:station:wmo:42050:1,2017-03-06T03:30:00Z,28.8425,-94.2433,2.0,36.0393,11111222 
TABS,ioos:station:wmo:42050:1,2017-03-06T04:00:00Z,28.8425,-94.2433,2.0,36.0461,11111222 
TABS,ioos:station:wmo:42050:1,2017-03-06T04:30:00Z,28.8425,-94.2433,2.0,36.0523,11111222 
TABS,ioos:station:wmo:42050:1,2017-03-06T05:00:00Z,28.8425,-94.2433,2.0,36.0588,11111222 
TABS,ioos:station:wmo:42050:1,2017-03-06T05:30:00Z,28.8425,-94.2433,2.0,36.0678,11111222 
TABS,ioos:station:wmo:42050:1,2017-03-06T06:00:00Z,28.8425,-94.2433,2.0,36.0787,11111222 
TABS,ioos:station:wmo:42050:1,2017-03-06T06:30:00Z,28.8425,-94.2433,2.0,36.0875,11111222 
TABS,ioos:station:wmo:42050:1,2017-03-06T07:00:00Z,28.8425,-94.2433,2.0,36.0692,11111222 
TABS,ioos:station:wmo:42050:1,2017-03-06T07:30:00Z,28.8425,-94.2433,2.0,36.0528,11111222 
TABS,ioos:station:wmo:42050:1,2017-03-06T08:00:00Z,28.8425,-94.2433,2.0,36.0394,11111222 
TABS,ioos:station:wmo:42050:1,2017-03-06T08:30:00Z,28.8425,-94.2433,2.0,36.0298,11111222 
TABS,ioos:station:wmo:42050:1,2017-03-06T09:00:00Z,28.8425,-94.2433,2.0,36.0138,11111222 
TABS,ioos:station:wmo:42050:1,2017-03-06T09:30:00Z,28.8425,-94.2433,2.0,35.9467,11111222 
TABS,ioos:station:wmo:42050:1,2017-03-06T10:00:00Z,28.8425,-94.2433,2.0,35.8987,11111222 
TABS,ioos:station:wmo:42050:1,2017-03-06T10:30:00Z,28.8425,-94.2433,2.0,35.8765,11111222 
TABS,ioos:station:wmo:42050:1,2017-03-06T11:00:00Z,28.8425,-94.2433,2.0,35.866,11111222 
TABS,ioos:station:wmo:42050:1,2017-03-06T11:30:00Z,28.8425,-94.2433,2.0,35.8379,11111222 
TABS,ioos:station:wmo:42050:1,2017-03-06T12:00:00Z,28.8425,-94.2433,2.0,35.8234,11111222 